Overview Statistics Trail Chart Weather Telemetry Raw packets
 

This is the latest recevied weather packets stored in our database for station/object PA3BWK. If no packets are shown the sender has not sent any weather packets the latest 10 day(s).

<< 514 515 516 517 518 519 520 >>
Time Temp. Humidity Pressure Rain* Wind** Luminosity Snow
1787820134 20.56° C 79% 1011.3 hPa 0 mm - 167 W/m² -
1787820072 20.56° C 79% 1011.2 hPa 0 mm - 169 W/m² -
1787820015 20.56° C 79% 1011.2 hPa 0 mm - 167 W/m² -
1787819956 20.56° C 79% 1011.2 hPa 0 mm - 162 W/m² -
1787819893 20.56° C 79% 1011 hPa 0 mm - 158 W/m² -
1787819834 20.56° C 80% 1011.1 hPa 0 mm - 160 W/m² -
1787819774 20.56° C 80% 1011 hPa 0 mm - 164 W/m² -
1787819712 20.56° C 80% 1011.1 hPa 0 mm - 169 W/m² -
1787819652 20.56° C 80% 1011.1 hPa 0 mm - 174 W/m² -
1787819593 20.56° C 80% 1011.1 hPa 0 mm - 176 W/m² -
1787819532 20.56° C 80% 1011.1 hPa 0 mm - 178 W/m² -
1787819473 20.56° C 80% 1011.2 hPa 0 mm - 178 W/m² -
1787819412 20.56° C 80% 1011.2 hPa 0 mm - 176 W/m² -
1787819352 20.56° C 80% 1011.3 hPa 0 mm - 172 W/m² -
1787819293 20.56° C 81% 1011.3 hPa 0 mm - 165 W/m² -
1787819232 20.56° C 81% 1011.3 hPa 0 mm - 160 W/m² -
1787819173 20.56° C 81% 1011.3 hPa 0 mm - 157 W/m² -
1787819114 20.56° C 81% 1011.3 hPa 0 mm - 151 W/m² -
1787819052 20.56° C 81% 1011.3 hPa 0 mm - 153 W/m² -
1787818992 20° C 81% 1011.3 hPa 0 mm - 153 W/m² -
1787818935 20° C 82% 1011.4 hPa 0 mm - 151 W/m² -
1787818872 20° C 82% 1011.4 hPa 0 mm - 151 W/m² -
1787818812 20° C 82% 1011.4 hPa 0 mm - 151 W/m² -
1787818752 20° C 82% 1011.4 hPa 0 mm - 151 W/m² -
1787818693 20° C 83% 1011.4 hPa 0 mm - 151 W/m² -

* Rain latest hour (hover to see other rain measurements)
** Current wind speed in m/s (hover to see current wind gust speed)